EW7556 Weather Reports


time (UTC)temp
F
wind
direction
speed
knots
gust
knots
rain 1hr
in
rain 24hr
in
rain mn
in
humidity
%
barometer
mb
20260904200116 64 306 1.7 7.0 0.00 0.18 0.00 71 1014.4
20260904194600 64 225 1.7 7.0 0.00 0.18 0.00 71 1014.5
20260904193108 64 330 0.9 5.2 0.00 0.18 0.00 72 1014.3
20260904191502 66 330 0.9 3.5 0.00 0.18 0.00 69 1014.3
20260904190109 65 346 1.7 7.0 0.00 0.18 0.00 70 1014.1
20260904184555 65 330 1.7 4.3 0.00 0.18 0.00 72 1014.0
20260904183101 65 300 0.9 3.5 0.00 0.18 0.00 74 1014.0
20260904181602 64 335 0.9 3.5 0.00 0.18 0.00 74 1013.9
20260904180112 65 341 0.9 4.3 0.00 0.18 0.00 75 1014.1
20260904174551 64 308 0.0 2.6 0.00 0.18 0.00 73 1014.1
20260904173113 62 239 0.0 1.7 0.00 0.18 0.00 75 1014.0
20260904171601 61 14 0.0 2.6 0.00 0.18 0.00 78 1013.9
20260904170107 58 222 0.0 0.9 0.00 0.18 0.00 86 1014.0
20260904164545 57 222 0.0 1.7 0.00 0.18 0.00 89 1014.1
20260904163048 56 24 0.0 1.7 0.00 0.18 0.00 90 1014.2
20260904161550 55 353 0.0 1.7 0.00 0.18 0.00 91 1014.0
20260904160053 54 211 0.0 0.0 0.00 0.18 0.00 91 1013.9
20260904154539 53 212 0.0 0.0 0.00 0.18 0.00 91 1013.6
20260904153049 52 211 0.0 0.9 0.00 0.18 0.00 91 1013.5
20260904151549 51 210 0.9 1.7 0.00 0.18 0.00 91 1013.5
20260904150054 51 187 0.0 0.0 0.00 0.18 0.00 91 1013.5
20260904144536 50 187 0.0 0.0 0.00 0.18 0.00 91 1013.5
20260904143039 50 187 0.0 0.0 0.00 0.18 0.00 91 1013.5
20260904141543 49 187 0.0 0.0 0.00 0.18 0.00 91 1013.4
20260904140054 49 187 0.0 0.0 0.00 0.18 0.00 91 1013.1
20260904134538 49 187 0.0 0.0 0.00 0.18 0.00 91 1012.8
20260904133043 49 187 0.0 0.0 0.00 0.18 0.00 91 1012.4
20260904131545 49 187 0.0 0.0 0.00 0.18 0.00 91 1012.3
20260904130048 48 187 0.0 0.9 0.00 0.18 0.00 91 1012.2
20260904124546 48 187 0.0 0.0 0.00 0.18 0.00 91 1012.2
20260904123042 48 187 0.0 0.0 0.00 0.18 0.00 91 1012.1
20260904121538 48 187 0.0 0.0 0.00 0.18 0.00 91 1012.0
20260904120024 48 187 0.9 1.7 0.00 0.18 0.00 91 1011.9
20260904114535 47 191 0.0 0.0 0.00 0.18 0.00 91 1012.0
20260904113038 47 191 0.0 0.0 0.00 0.18 0.00 91 1011.8
20260904111531 47 190 0.0 0.0 0.00 0.18 0.00 91 1011.7
20260904110016 47 191 0.0 0.0 0.00 0.18 0.00 91 1011.6
20260904104519 47 190 0.0 0.9 0.00 0.18 0.00 91 1011.3
20260904103025 47 190 0.0 0.9 0.00 0.18 0.00 91 1011.3
20260904101526 47 191 0.0 0.9 0.00 0.18 0.00 91 1011.2
20260904100009 46 188 0.9 1.7 0.00 0.18 0.00 91 1011.2
20260904094513 46 192 0.9 1.7 0.00 0.18 0.00 91 1011.2
20260904093016 46 195 0.0 0.9 0.00 0.18 0.00 91 1011.3
20260904091519 46 195 0.0 0.9 0.00 0.18 0.00 91 1011.3
20260904090007 46 195 0.0 0.0 0.00 0.18 0.00 91 1011.3
20260904084506 47 195 0.0 0.0 0.00 0.18 0.00 91 1011.3
20260904083008 47 195 0.0 0.9 0.00 0.18 0.00 91 1011.4
20260904081513 47 195 0.0 0.9 0.00 0.18 0.00 91 1011.4
20260904080118 48 195 0.0 0.9 0.00 0.18 0.00 91 1011.4
20260904074617 47 196 0.0 0.9 0.00 0.18 0.00 91 1011.5
20260904073109 47 196 0.0 1.7 0.00 0.18 0.00 91 1011.4
20260904071511 48 224 0.0 0.0 0.00 0.18 0.00 91 1011.4
20260904070131 48 224 0.0 0.0 0.00 0.18 0.18 91 1011.3
20260904064549 47 224 0.0 0.0 0.00 0.18 0.18 91 1011.2
20260904063057 48 224 0.0 0.0 0.00 0.18 0.18 91 1011.2
20260904061604 48 224 0.0 0.0 0.00 0.18 0.18 91 1011.1
20260904054553 48 224 0.0 0.0 0.00 0.18 0.18 91 1010.9
20260904053059 49 224 0.0 0.0 0.00 0.18 0.18 91 1010.9
20260904051606 49 224 0.0 0.0 0.00 0.18 0.18 91 1011.0
20260904044547 50 224 0.0 0.0 0.00 0.18 0.18 90 1011.0
20260904043103 51 224 0.0 0.0 0.00 0.18 0.18 90 1010.9
20260904041555 51 224 0.0 0.0 0.00 0.18 0.18 90 1011.0
20260904040058 52 224 0.0 0.0 0.00 0.18 0.18 90 1010.9
20260904034551 53 224 0.0 0.0 0.00 0.18 0.18 89 1010.8
20260904033048 54 224 0.0 0.9 0.00 0.18 0.18 88 1010.7
20260904031552 55 224 0.0 0.0 0.00 0.18 0.18 87 1010.6
20260904030055 56 224 0.0 0.0 0.00 0.18 0.18 85 1010.4
20260904024541 57 224 0.0 0.0 0.00 0.18 0.18 85 1010.3
20260904023048 57 224 0.0 0.0 0.00 0.18 0.18 86 1010.2
20260904021555 57 224 0.0 0.0 0.00 0.18 0.18 86 1010.0
20260904020051 58 224 0.0 0.0 0.00 0.18 0.18 84 1010.0
20260904014548 58 224 0.0 0.9 0.00 0.18 0.18 83 1009.9
20260904013042 60 224 0.0 2.6 0.00 0.18 0.18 82 1009.8
20260904011542 61 200 0.0 2.6 0.00 0.18 0.18 80 1009.8
20260904010046 62 242 0.0 2.6 0.00 0.18 0.18 81 1009.7
20260904004534 61 272 0.0 1.7 0.00 0.18 0.18 83 1009.6
20260904003034 60 293 0.0 1.7 0.00 0.18 0.18 85 1009.6
20260904001546 60 345 0.0 3.5 0.00 0.18 0.18 83 1009.7
20260904000136 61 330 0.9 3.5 0.00 0.18 0.18 83 1009.4
20260903234535 62 311 0.0 2.6 0.00 0.18 0.18 86 1009.5
20260903233038 61 289 0.9 4.3 0.00 0.18 0.18 90 1009.5
20260903231547 60 298 0.0 3.5 0.00 0.18 0.18 90 1009.7
20260903230051 59 343 0.0 2.6 0.01 0.18 0.18 90 1009.8
20260903224543 59 328 0.0 0.9 0.03 0.18 0.18 90 1009.9
20260903223036 58 27 0.0 0.9 0.07 0.18 0.18 90 1010.1
20260903221542 58 4 0.0 0.0 0.12 0.18 0.18 90 1010.0
20260903220107 57 199 0.0 0.0 0.14 0.17 0.17 90 1010.1
20260903214552 57 199 0.0 0.0 0.12 0.14 0.14 90 1010.1
20260903213056 57 199 0.0 0.0 0.11 0.11 0.11 89 1010.1
20260903211552 57 199 0.0 0.9 0.05 0.05 0.05 88 1010.0
20260903210104 57 199 0.0 1.7 0.03 0.03 0.03 88 1009.9
20260903204547 57 254 0.0 1.7 0.02 0.02 0.02 86 1009.8
20260903203050 58 231 0.0 3.5 0.00 0.00 0.00 85 1009.6
20260903201557 58 235 0.0 5.2 0.00 0.00 0.00 85 1009.5